Lid_Strength_Index
2 1 1 1 1 1 1 1 1 1 1 1 1 1 1 1 1 1 1 1 1 2 1 2 2 1 1 2 2 3 3 3 4 4 2 2 2 1 1 1 2 3 2
2 1 2 1 1 1 1 1 2 1 1 1 1 1 1 1 1 1 1 1 1 2 1 2 2 1 2 2 2 2 3 3 4 4 3 2 3 1 1 1 2 2 2
2 2 2 2 1 1 1 1 1 2 2 1 1 1 1 1 1 1 1 1 1 1 1 2 2 2 2 2 3 2 1 3 3 4 4 2 2 2 3 2 2 1 0
2 2 2 2 2 1 1 1 1 1 2 2 1 1 1 1 1 1 1 1 1 1 1 1 1 2 2 2 3 3 2 2 3 3 4 2 2 1 2 2 2 1 1
2 2 2 2 1 1 1 1 1 1 1 1 1 1 1 1 1 1 1 1 1 1 1 1 1 1 2 2 2 2 3 3 2 3 4 4 3 3 3 2 2 1 1
2 2 2 2 2 2 1 1 1 1 1 1 1 1 1 1 3 4 2 1 1 1 2 1 1 2 2 4 4 3 3 3 3 3 3 3 3 2 2 2 2 3 4
2 2 2 2 2 2 2 1 2 2 1 1 1 1 1 1 5 5 4 1 1 1 1 1 1 1 2 1 4 4 5 5 4 4 3 2 2 2 2 2 2 2 3
3 2 2 2 2 2 2 2 2 1 2 2 1 1 1 1 6 7 6 2 1 1 1 1 1 1 1 1 1 2 3 3 3 4 4 4 3 2 2 2 1 1 1
3 2 2 2 2 2 2 2 2 2 2 2 1 1 2 1 7 7 7 3 2 1 1 1 1 1 3 6 2 2 2 2 3 6 5 5 6 6 4 3 3 3 3
2 2 2 2 2 2 2 2 2 2 2 1 2 1 3 1 7 9 7 2 2 2 1 1 5 3 6 8 3 2 3 2 2 2 4 5 6 5 6 3 3 3 3
2 2 2 2 2 2 2 2 2 2 2 2 2 1 1 2 2 10 10 2 2 2 2 2 1 7 9 10 8 1 2 2 2 2 2 2 3 3 4 3 2 2 3
2 2 2 2 2 2 2 2 2 2 2 2 2 2 2 1 7 10 11 9 4 2 2 1 1 8 11 11 9 8 8 8 2 2 2 3 3 4 4 3 2 2 2
3 3 3 2 2 2 2 2 2 2 3 3 3 3 3 2 1 10 12 11 10 4 1 3 7 11 12 12 12 11 10 5 4 3 3 2 2 3 3 3 2 2 2
3 3 3 3 3 3 2 2 2 3 3 3 3 3 3 2 2 2 6 8 11 9 7 5 7 9 10 8 8 9 8 6 5 4 3 2 1 3 3 3 3 2 2
3 3 4 3 3 4 8 7 3 5 5 3 3 2 3 3 2 5 5 4 5 6 6 5 6 7 6 6 6 6 8 7 5 4 3 3 2 3 3 3 3 3 4
3 3 3 3 4 7 9 11 17 17 19 18 14 6 7 13 14 15 15 15 14 14 7 5 5 4 4 4 5 6 5 5 4 4 2 2 3 4 4 3 3 3 4
3 3 3 4 3 8 8 8 9 12 18 20 19 16 14 14 18 18 18 17 17 13 5 5 5 5 6 6 6 6 5 4 3 2 2 2 4 4 3 3 3 4 4
3 6 3 3 3 5 6 7 7 8 8 9 15 17 19 19 19 19 17 12 7 8 7 7 7 7 6 6 6 5 3 3 2 2 3 3 3 3 3 3 3 4 4
3 3 3 3 3 4 5 6 7 8 9 10 11 13 16 18 18 17 16 7 8 8 8 8 7 5 5 4 4 4 4 2 2 2 3 3 3 3 3 3 4 7 6
2 5 5 3 3 3 4 5 6 8 9 9 8 8 9 10 7 7 7 9 9 9 8 5 4 4 4 4 4 4 4 2 2 2 3 2 2 3 4 4 5 6 6
2 2 4 3 4 3 3 4 6 8 9 8 8 9 12 7 7 7 8 7 6 5 4 4 4 4 4 4 4 3 3 2 2 2 2 3 3 4 5 5 5 6 6
3 2 3 4 4 5 6 6 7 8 7 8 8 10 15 7 5 5 5 4 3 3 3 3 3 3 3 3 3 3 2 3 2 3 3 3 4 5 4 5 5 6 6
3 4 4 4 5 6 6 6 6 8 8 8 9 8 5 4 4 4 3 3 3 3 2 2 3 3 3 3 3 3 1 2 3 3 4 4 4 4 4 5 5 6 7
5 5 5 5 5 6 6 6 7 9 8 8 8 7 6 5 5 6 6 8 8 8 9 7 6 3 3 3 3 3 2 2 2 3 3 4 4 5 4 4 4 5 6
5 5 6 6 6 7 7 8 8 9 9 9 10 9 9 9 9 9 9 10 11 11 12 12 13 13 12 12 11 7 11 14 5 7 2 3 3 3 3 5 5 6 7
8 7 8 8 8 8 9 9 10 10 11 12 11 10 10 11 11 11 11 11 12 12 12 12 13 13 13 14 14 17 18 17 13 15 3 2 2 2 4 5 6 6 6